Weather History for KMCI - May, 2013

Change the Weather History Date:

Monday, May 13, 2013

  Actual Average Record
Temperature  
Mean Temperature 61 °F 64 °F  
Max Temperature 77 °F 74 °F 90 °F (1962)
Min Temperature 45 °F 53 °F 36 °F (1997)
Degree Days  
Heating Degree Days 4 4  
Month to date heating degree days 141 63  
Since 1 July heating degree days 5170 5083  
Cooling Degree Days 0 2  
Month to date cooling degree days 0 20  
Year to date cooling degree days 13 48  
Growing Degree Days 11 (Base 50)    
Moisture  
Dew Point 46 °F    
Average Humidity 55    
Maximum Humidity 71    
Minimum Humidity 38    
Precipitation  
Precipitation 0.00 in 0.17 in 2.08 in (1925)
Month to date precipitation 2.47 2.18  
Year to date precipitation 10.94 10.78  
Snow  
Snow 0.00 in 0.00 in 0.00 in ()
Month to date snowfall 0.5 0.0  
Since 1 July snowfall 31.8 18.8  
Snow Depth 0.00 in    
Sea Level Pressure  
Sea Level Pressure 30.05 in    
Wind  
Wind Speed 11 mph (South)    
Max Wind Speed 17 mph    
Max Gust Speed 22 mph    
Visibility 10 miles    
Events      
T = Trace of Precipitation, MM = Missing Value Source: NWS Daily Summary

Daily Weather History Graph

Daily Weather History Graph

Search for Another Location

Airport or City:

Trip Planner

Search our weather history database for the weather conditions in past years. The results will help you decide how hot, cold, wet, or windy it might be!

Date:

Astronomy

May. 13, 2013 Rise Set
Actual Time 6:07 AM CDT 8:24 PM CDT
Civil Twilight 5:36 AM CDT 8:54 PM CDT
Nautical Twilight 4:59 AM CDT 9:31 PM CDT
Astronomical Twilight 4:19 AM CDT 10:12 PM CDT
Moon 8:53 AM CDT (5/13) 11:33 PM CDT (5/13)
Length of Visible Light 15h 17m
Length of Day
14h 17m
Waxing Crescent, 12% of the Moon is Illuminated
May 13
Waxing Crescent
May 17
First Quarter
May 24
Full
May 31
Last Quarter
Jun 8
New

Hourly Weather History & Observations

Time (CDT) Temp. Windchill Dew Point Humidity Pressure Visibility Wind Dir Wind Speed Gust Speed Precip Events Conditions
12:53 AM 50.0 °F - 37.9 °F 63% 30.15 in 10.0 mi South 5.8 mph - N/A   Partly Cloudy
1:53 AM 50.0 °F - 37.9 °F 63% 30.14 in 10.0 mi SSE 4.6 mph - N/A   Clear
2:53 AM 50.0 °F - 39.0 °F 66% 30.14 in 10.0 mi SSE 4.6 mph - N/A   Clear
3:53 AM 46.0 °F 42.5 °F 37.9 °F 73% 30.13 in 10.0 mi SSE 6.9 mph - N/A   Partly Cloudy
4:53 AM 48.9 °F - 39.9 °F 71% 30.13 in 10.0 mi SSE 6.9 mph - N/A   Partly Cloudy
5:53 AM 48.0 °F - 39.9 °F 74% 30.12 in 10.0 mi SSE 8.1 mph - N/A   Mostly Cloudy
6:53 AM 51.1 °F - 41.0 °F 68% 30.12 in 10.0 mi SSE 8.1 mph - N/A   Mostly Cloudy
7:53 AM 55.9 °F - 41.0 °F 57% 30.12 in 10.0 mi SSE 11.5 mph - N/A   Partly Cloudy
8:53 AM 61.0 °F - 42.1 °F 50% 30.12 in 10.0 mi SSE 11.5 mph - N/A   Partly Cloudy
9:53 AM 64.9 °F - 42.1 °F 43% 30.11 in 10.0 mi SSE 11.5 mph - N/A   Partly Cloudy
10:53 AM 68.0 °F - 44.1 °F 42% 30.10 in 10.0 mi SSE 12.7 mph - N/A   Partly Cloudy
11:53 AM 70.0 °F - 45.0 °F 41% 30.09 in 10.0 mi SSE 10.4 mph - N/A   Partly Cloudy
12:53 PM 72.0 °F - 46.9 °F 41% 30.06 in 10.0 mi SE 11.5 mph - N/A   Partly Cloudy
1:53 PM 73.9 °F - 50.0 °F 43% 30.06 in 10.0 mi SSE 10.4 mph 18.4 mph N/A   Mostly Cloudy
3:53 PM 75.9 °F - 50.0 °F 40% 30.01 in 10.0 mi South 10.4 mph 20.7 mph N/A   Scattered Clouds
4:53 PM 75.9 °F - 51.1 °F 42% 29.99 in 10.0 mi South 11.5 mph - N/A   Mostly Cloudy
5:53 PM 75.9 °F - 52.0 °F 43% 29.98 in 10.0 mi SSW 16.1 mph - N/A   Scattered Clouds
6:53 PM 73.4 °F - 51.8 °F 47% 29.97 in 10.0 mi SSW 13.8 mph - N/A   Scattered Clouds
7:53 PM 72.0 °F - 52.0 °F 49% 29.95 in 10.0 mi SSW 11.5 mph - N/A   Mostly Cloudy
8:53 PM 64.9 °F - 53.1 °F 65% 29.94 in 10.0 mi South 9.2 mph - N/A   Scattered Clouds
9:53 PM 66.9 °F - 54.0 °F 63% 29.94 in 10.0 mi SSW 11.5 mph - N/A   Partly Cloudy
10:53 PM 66.9 °F - 55.0 °F 66% 29.93 in 10.0 mi SSW 13.8 mph - N/A   Clear
11:53 PM 66.9 °F - 55.0 °F 66% 29.91 in 10.0 mi SSW 13.8 mph - N/A   Clear